GW2055 Weather Reports


Display with metric or nautical units.
time (UTC)temp
F
wind
direction
speed
MPH
gust
MPH
rain 1hr
in
rain 24hr
in
rain mn
in
humidity
%
barometer
mb
20260902040104 82 0 0.0 0.0 0.00 0.00 0.00 63 1014.4
20260902034601 83 0 0.0 0.0 0.00 0.00 0.00 63 1014.5
20260902033107 83 0 0.0 0.0 0.00 0.00 0.00 62 1014.5
20260902031604 84 0 0.0 0.0 0.00 0.00 0.00 60 1014.2
20260902030109 85 0 0.0 0.0 0.00 0.00 0.00 59 1014.0
20260902024601 85 0 0.0 0.0 0.00 0.00 0.00 57 1013.9
20260902023110 86 0 0.0 0.0 0.00 0.00 0.00 55 1013.6
20260902021600 87 0 0.0 0.0 0.00 0.00 0.00 53 1013.4
20260902014600 90 0 0.0 0.0 0.00 0.00 0.00 47 1013.2
20260902013057 91 0 0.0 0.0 0.00 0.00 0.00 45 1013.0
20260902011609 92 0 0.0 1.0 0.00 0.00 0.00 44 1013.0
20260902010101 93 0 0.0 1.0 0.00 0.00 0.00 42 1012.9
20260902004605 94 0 0.0 2.0 0.00 0.00 0.00 40 1013.0
20260902003102 95 0 0.0 4.0 0.00 0.00 0.00 39 1013.1
20260902001604 97 0 0.0 4.0 0.00 0.00 0.00 37 1013.2
20260902000120 98 116 1.0 6.0 0.00 0.00 0.00 35 1013.3
20260901234603 98 0 0.0 4.0 0.00 0.00 0.00 35 1013.4
20260901233108 99 153 2.0 5.0 0.00 0.00 0.00 34 1013.5
20260901231606 99 103 2.0 8.0 0.00 0.00 0.00 34 1013.5
20260901230115 99 111 3.0 10.0 0.00 0.00 0.00 33 1013.5
20260901224606 100 0 2.0 7.0 0.00 0.00 0.00 33 1013.5
20260901223116 100 114 0.0 6.0 0.00 0.00 0.00 34 1013.5
20260901221610 99 148 1.0 6.0 0.00 0.00 0.00 35 1013.6
20260901220134 99 0 1.0 8.0 0.00 0.00 0.00 33 1013.8
20260901214557 100 124 1.0 7.0 0.00 0.00 0.00 34 1013.7
20260901213130 99 46 1.0 8.0 0.00 0.00 0.00 35 1013.6
20260901211604 100 101 3.0 9.0 0.00 0.00 0.00 34 1013.8
20260901210106 100 112 0.0 7.0 0.00 0.00 0.00 35 1013.9
20260901204619 102 128 1.0 8.0 0.00 0.00 0.00 31 1014.2
20260901203110 102 117 2.0 10.0 0.00 0.00 0.00 31 1014.4
20260901201602 102 147 2.0 8.0 0.00 0.00 0.00 31 1014.5
20260901200103 103 227 2.0 10.0 0.00 0.00 0.00 30 1014.8
20260901194604 102 118 3.0 9.0 0.00 0.00 0.00 31 1014.9
20260901193125 102 110 3.0 10.0 0.00 0.00 0.00 32 1015.1
20260901191605 101 155 1.0 7.0 0.00 0.00 0.00 33 1015.3
20260901190105 101 132 2.0 7.0 0.00 0.00 0.00 31 1015.4
20260901184604 100 323 0.0 7.0 0.00 0.00 0.00 33 1015.6
20260901183104 100 94 1.0 6.0 0.00 0.00 0.00 35 1015.8
20260901181605 102 0 1.0 9.0 0.00 0.00 0.00 33 1016.1
20260901180119 101 0 0.0 9.0 0.00 0.00 0.00 36 1016.2
20260901174613 99 0 1.0 4.0 0.00 0.00 0.00 36 1016.4
20260901173111 99 126 1.0 8.0 0.00 0.00 0.00 36 1016.5
20260901171618 99 310 1.0 5.0 0.00 0.00 0.00 36 1016.7
20260901170110 98 0 0.0 7.0 0.00 0.00 0.00 37 1017.0
20260901164628 99 223 2.0 10.0 0.00 0.00 0.00 37 1017.2
20260901163101 97 321 1.0 6.0 0.00 0.00 0.00 42 1017.3
20260901161610 96 0 1.0 7.0 0.00 0.00 0.00 43 1017.3
20260901160106 94 123 0.0 5.0 0.00 0.00 0.00 49 1017.4
20260901154604 92 76 1.0 4.0 0.00 0.00 0.00 51 1017.3
20260901153104 90 129 1.0 4.0 0.00 0.00 0.00 53 1017.3
20260901151615 90 92 0.0 4.0 0.00 0.00 0.00 52 1017.3
20260901144607 88 0 0.0 3.0 0.00 0.00 0.00 56 1017.4
20260901143105 86 0 0.0 3.0 0.00 0.00 0.00 60 1017.4
20260901141604 84 0 0.0 3.0 0.00 0.00 0.00 61 1017.6
20260901140108 82 56 0.0 2.0 0.00 0.00 0.00 64 1017.5
20260901134620 79 0 0.0 3.0 0.00 0.00 0.00 68 1017.5
20260901133101 78 87 0.0 2.0 0.00 0.00 0.00 70 1017.4
20260901131559 76 0 0.0 1.0 0.00 0.00 0.00 73 1017.4
20260901124602 74 0 0.0 1.0 0.00 0.00 0.00 76 1017.2
20260901123101 73 0 0.0 0.0 0.00 0.00 0.00 77 1016.9
20260901121557 73 0 0.0 0.0 0.00 0.00 0.00 75 1016.8
20260901120104 74 0 0.0 0.0 0.00 0.00 0.00 75 1016.6
20260901114608 74 0 0.0 1.0 0.00 0.00 0.00 75 1016.4
20260901113104 74 0 0.0 1.0 0.00 0.00 0.00 74 1016.4
20260901111603 74 0 0.0 1.0 0.00 0.00 0.00 74 1016.3
20260901110100 74 0 0.0 1.0 0.00 0.00 0.00 75 1016.3
20260901104601 74 0 0.0 0.0 0.00 0.00 0.00 75 1016.2
20260901103106 74 0 0.0 1.0 0.00 0.00 0.00 75 1016.1
20260901101609 73 0 0.0 1.0 0.00 0.00 0.00 75 1015.9
20260901100108 73 0 0.0 0.0 0.00 0.00 0.00 77 1015.9
20260901094602 74 0 0.0 0.0 0.00 0.00 0.00 76 1015.8
20260901093105 74 0 0.0 0.0 0.00 0.00 0.00 75 1015.7
20260901091602 74 0 0.0 0.0 0.00 0.00 0.00 73 1015.7
20260901090107 75 0 0.0 0.0 0.00 0.00 0.00 73 1015.6
20260901084601 75 0 0.0 0.0 0.00 0.00 0.00 73 1015.6
20260901083109 75 0 0.0 1.0 0.00 0.00 0.00 74 1015.5
20260901081611 75 0 0.0 0.0 0.00 0.00 0.00 74 1015.4
20260901080120 75 0 0.0 0.0 0.00 0.00 0.00 74 1015.4
20260901074602 76 0 0.0 0.0 0.00 0.00 0.00 73 1015.4
20260901073104 76 0 0.0 0.0 0.00 0.00 0.00 71 1015.3
20260901071602 77 0 0.0 0.0 0.00 0.00 0.00 70 1015.4
20260901070110 77 0 0.0 0.0 0.00 0.00 0.00 68 1015.4
20260901064604 78 0 0.0 0.0 0.00 0.00 0.00 67 1015.4
20260901063105 78 0 0.0 1.0 0.00 0.00 0.00 65 1015.4
20260901061559 78 0 0.0 1.0 0.00 0.00 0.00 65 1015.5
20260901060108 78 0 0.0 0.0 0.00 0.00 0.00 65 1015.5
20260901054605 77 0 0.0 2.0 0.00 0.00 0.00 67 1015.3
20260901053132 78 0 0.0 0.0 0.00 0.00 0.00 67 1015.1
20260901051612 78 0 0.0 0.0 0.00 0.00 0.00 66 1015.1
20260901050108 79 0 0.0 0.0 0.00 0.00 0.00 66 1015.0
20260901044610 79 0 0.0 0.0 0.00 0.00 0.00 65 1015.0
20260901043103 80 0 0.0 0.0 0.00 0.00 0.00 63 1015.0
20260901041604 80 0 0.0 0.0 0.00 0.00 0.00 62 1014.9